Time,TemperatureF,DewpointF,PressureIn,WindDirection,WindDirectionDegrees,WindSpeedMPH,WindSpeedGustMPH,Humidity,HourlyPrecipIn,Conditions,Clouds,dailyrainin,SoftwareType,DateUTC
2013-10-02 00:01:00,53.2,49.7,29.76,NW,315,0.0,-999.0,88,-99.99,,,0.00,Acu-Link.com,2013-10-02 07:01:00,
2013-10-02 00:16:00,53.1,49.6,29.76,NW,315,0.0,-999.0,88,-99.99,,,0.00,Acu-Link.com,2013-10-02 07:16:00,
2013-10-02 00:31:00,52.7,50.1,29.75,West,270,0.0,-999.0,91,-99.99,,,0.00,Acu-Link.com,2013-10-02 07:31:00,
2013-10-02 00:46:00,52.7,50.1,29.76,SSW,202,0.0,-999.0,91,-99.99,,,0.00,Acu-Link.com,2013-10-02 07:46:00,
2013-10-02 01:02:00,52.5,50.2,29.75,NE,45,0.0,-999.0,92,-99.99,,,0.00,Acu-Link.com,2013-10-02 08:02:00,
2013-10-02 01:18:00,52.3,49.8,29.75,North,0,0.0,-999.0,91,-99.99,,,0.00,Acu-Link.com,2013-10-02 08:18:00,
2013-10-02 01:33:00,52.2,49.9,29.75,SE,135,0.0,-999.0,92,-99.99,,,0.00,Acu-Link.com,2013-10-02 08:33:00,
2013-10-02 01:48:00,51.8,49.6,29.75,SE,135,0.0,-999.0,92,-99.99,,,0.00,Acu-Link.com,2013-10-02 08:48:00,
2013-10-02 02:03:00,51.6,49.1,29.75,SE,135,0.0,-999.0,91,-99.99,,,0.00,Acu-Link.com,2013-10-02 09:03:00,
2013-10-02 02:19:00,51.3,49.3,29.75,NNW,337,0.0,-999.0,93,-99.99,,,0.00,Acu-Link.com,2013-10-02 09:19:00,
2013-10-02 02:34:00,50.0,48.6,29.76,ESE,112,0.0,-999.0,95,-99.99,,,0.00,Acu-Link.com,2013-10-02 09:34:00,
2013-10-02 02:49:00,49.8,48.7,29.75,ESE,112,0.0,-999.0,96,-99.99,,,0.00,Acu-Link.com,2013-10-02 09:49:00,
2013-10-02 03:04:00,49.5,48.4,29.75,SE,135,0.0,-999.0,96,-99.99,,,0.00,Acu-Link.com,2013-10-02 10:04:00,
2013-10-02 03:20:00,49.3,48.5,29.75,SE,135,0.0,-999.0,97,-99.99,,,0.00,Acu-Link.com,2013-10-02 10:20:00,
2013-10-02 03:35:00,49.1,48.0,29.75,WNW,292,0.0,-999.0,96,-99.99,,,0.00,Acu-Link.com,2013-10-02 10:35:00,
2013-10-02 03:50:00,48.7,47.9,29.76,South,180,0.0,-999.0,97,-99.99,,,0.00,Acu-Link.com,2013-10-02 10:50:00,
2013-10-02 04:05:00,48.6,47.8,29.75,West,270,0.0,-999.0,97,-99.99,,,0.00,Acu-Link.com,2013-10-02 11:05:00,
2013-10-02 04:21:00,48.0,46.9,29.75,West,270,0.0,-999.0,96,-99.99,,,0.00,Acu-Link.com,2013-10-02 11:21:00,
2013-10-02 04:36:00,47.7,47.2,29.75,ESE,112,0.0,-999.0,98,-99.99,,,0.00,Acu-Link.com,2013-10-02 11:36:00,
2013-10-02 04:51:00,47.7,47.2,29.75,ESE,112,0.0,-999.0,98,-99.99,,,0.00,Acu-Link.com,2013-10-02 11:51:00,
2013-10-02 05:07:00,47.7,47.2,29.75,WNW,292,0.0,-999.0,98,-99.99,,,0.00,Acu-Link.com,2013-10-02 12:07:00,
2013-10-02 05:22:00,47.5,47.0,29.76,NE,45,0.0,-999.0,98,-99.99,,,0.00,Acu-Link.com,2013-10-02 12:22:00,
2013-10-02 05:37:00,47.5,47.2,29.77,ESE,112,0.0,-999.0,99,-99.99,,,0.00,Acu-Link.com,2013-10-02 12:37:00,
2013-10-02 05:53:00,47.5,47.2,29.77,ESE,112,0.0,-999.0,99,-99.99,,,0.00,Acu-Link.com,2013-10-02 12:53:00,
2013-10-02 06:08:00,47.3,47.0,29.77,ESE,112,0.0,-999.0,99,-99.99,,,0.00,Acu-Link.com,2013-10-02 13:08:00,
2013-10-02 06:23:00,47.1,46.8,29.78,ESE,112,0.0,-999.0,99,-99.99,,,0.00,Acu-Link.com,2013-10-02 13:23:00,
2013-10-02 06:38:00,46.9,46.6,29.78,NE,45,0.0,-999.0,99,-99.99,,,0.00,Acu-Link.com,2013-10-02 13:38:00,
2013-10-02 06:54:00,46.8,46.5,29.78,SE,135,0.0,-999.0,99,-99.99,,,0.00,Acu-Link.com,2013-10-02 13:54:00,
2013-10-02 07:09:00,46.8,46.5,29.78,NNW,337,0.0,-999.0,99,-99.99,,,0.00,Acu-Link.com,2013-10-02 14:09:00,
2013-10-02 07:24:00,47.1,46.8,29.78,East,90,0.0,-999.0,99,-99.99,,,0.00,Acu-Link.com,2013-10-02 14:24:00,
2013-10-02 07:40:00,47.5,47.2,29.79,ESE,112,0.0,-999.0,99,-99.99,,,0.00,Acu-Link.com,2013-10-02 14:40:00,
2013-10-02 07:55:00,48.0,47.7,29.79,ESE,112,0.0,-999.0,99,-99.99,,,0.00,Acu-Link.com,2013-10-02 14:55:00,
2013-10-02 08:10:00,48.7,48.4,29.80,ENE,67,0.0,-999.0,99,-99.99,,,0.00,Acu-Link.com,2013-10-02 15:10:00,
2013-10-02 08:25:00,49.6,49.3,29.80,SE,135,0.0,-999.0,99,-99.99,,,0.00,Acu-Link.com,2013-10-02 15:25:00,
2013-10-02 08:41:00,50.0,49.7,29.81,South,180,0.0,-999.0,99,-99.99,,,0.00,Acu-Link.com,2013-10-02 15:41:00,
2013-10-02 08:56:00,50.4,50.1,29.81,WNW,292,0.0,-999.0,99,-99.99,,,0.00,Acu-Link.com,2013-10-02 15:56:00,
2013-10-02 09:11:00,50.9,50.6,29.82,WNW,292,0.0,-999.0,99,-99.99,,,0.00,Acu-Link.com,2013-10-02 16:11:00,
2013-10-02 09:26:00,52.0,51.7,29.82,NE,45,0.0,-999.0,99,-99.99,,,0.00,Acu-Link.com,2013-10-02 16:26:00,
2013-10-02 09:42:00,53.1,52.8,29.81,South,180,0.0,-999.0,99,-99.99,,,0.00,Acu-Link.com,2013-10-02 16:42:00,
2013-10-02 09:57:00,54.9,52.3,29.82,SSE,157,0.0,-999.0,91,-99.99,,,0.00,Acu-Link.com,2013-10-02 16:57:00,
2013-10-02 10:12:00,57.2,52.7,29.82,South,180,0.0,-999.0,85,-99.99,,,0.00,Acu-Link.com,2013-10-02 17:12:00,
2013-10-02 10:28:00,58.8,53.3,29.82,South,180,0.0,-999.0,82,-99.99,,,0.00,Acu-Link.com,2013-10-02 17:28:00,
2013-10-02 10:43:00,61.9,52.4,29.82,ESE,112,0.0,-999.0,71,-99.99,,,0.00,Acu-Link.com,2013-10-02 17:43:00,
2013-10-02 10:58:00,63.5,51.9,29.81,SSW,202,0.0,-999.0,66,-99.99,,,0.00,Acu-Link.com,2013-10-02 17:58:00,
2013-10-02 11:14:00,65.1,51.3,29.82,SSE,157,0.0,-999.0,61,-99.99,,,0.00,Acu-Link.com,2013-10-02 18:14:00,
2013-10-02 11:29:00,67.6,52.8,29.82,SSE,157,0.0,-999.0,59,-99.99,,,0.00,Acu-Link.com,2013-10-02 18:29:00,
2013-10-02 11:59:00,72.7,49.5,29.81,ESE,112,2.2,-999.0,44,-99.99,,,0.00,Acu-Link.com,2013-10-02 18:59:00,
2013-10-02 12:15:00,73.6,50.3,29.80,ESE,112,1.7,-999.0,44,-99.99,,,0.00,Acu-Link.com,2013-10-02 19:15:00,
2013-10-02 12:30:00,76.5,51.7,29.80,South,180,1.7,-999.0,42,-99.99,,,0.00,Acu-Link.com,2013-10-02 19:30:00,
2013-10-02 12:45:00,74.5,49.9,29.79,ESE,112,1.7,-999.0,42,-99.99,,,0.00,Acu-Link.com,2013-10-02 19:45:00,
2013-10-02 13:01:00,74.8,50.2,29.78,SE,135,0.0,-999.0,42,-99.99,,,0.00,Acu-Link.com,2013-10-02 20:01:00,
2013-10-02 13:16:00,79.7,52.5,29.77,ESE,112,0.0,-999.0,39,-99.99,,,0.00,Acu-Link.com,2013-10-02 20:16:00,
2013-10-02 13:31:00,80.6,52.6,29.77,ESE,112,1.1,-999.0,38,-99.99,,,0.00,Acu-Link.com,2013-10-02 20:31:00,
2013-10-02 13:47:00,78.8,52.4,29.76,NE,45,2.7,-999.0,40,-99.99,,,0.00,Acu-Link.com,2013-10-02 20:47:00,
2013-10-02 14:02:00,81.5,51.9,29.75,NNW,337,2.2,-999.0,36,-99.99,,,0.00,Acu-Link.com,2013-10-02 21:02:00,
2013-10-02 14:17:00,80.2,51.5,29.74,SSW,202,2.2,-999.0,37,-99.99,,,0.00,Acu-Link.com,2013-10-02 21:17:00,
2013-10-02 14:32:00,82.0,50.8,29.75,NNE,22,1.1,-999.0,34,-99.99,,,0.00,Acu-Link.com,2013-10-02 21:32:00,
2013-10-02 14:48:00,82.6,50.6,29.74,SSE,157,1.1,-999.0,33,-99.99,,,0.00,Acu-Link.com,2013-10-02 21:48:00,
2013-10-02 15:03:00,81.1,50.1,29.74,SSE,157,1.1,-999.0,34,-99.99,,,0.00,Acu-Link.com,2013-10-02 22:03:00,
2013-10-02 15:18:00,80.6,50.4,29.74,North,0,1.7,-999.0,35,-99.99,,,0.00,Acu-Link.com,2013-10-02 22:18:00,
2013-10-02 15:34:00,78.3,48.4,29.73,East,90,1.7,-999.0,35,-99.99,,,0.00,Acu-Link.com,2013-10-02 22:34:00,
2013-10-02 15:49:00,77.0,47.2,29.73,ESE,112,0.0,-999.0,35,-99.99,,,0.00,Acu-Link.com,2013-10-02 22:49:00,
2013-10-02 16:04:00,76.1,47.2,29.74,West,270,1.7,-999.0,36,-99.99,,,0.00,Acu-Link.com,2013-10-02 23:04:00,
2013-10-02 16:19:00,75.7,49.0,29.74,SE,135,0.0,-999.0,39,-99.99,,,0.00,Acu-Link.com,2013-10-02 23:19:00,
2013-10-02 16:34:00,75.0,47.7,29.74,NE,45,0.0,-999.0,38,-99.99,,,0.00,Acu-Link.com,2013-10-02 23:34:00,
2013-10-02 16:50:00,74.5,46.5,29.74,WNW,292,0.0,-999.0,37,-99.99,,,0.00,Acu-Link.com,2013-10-02 23:50:00,
2013-10-02 17:05:00,73.4,46.2,29.74,ESE,112,2.7,-999.0,38,-99.99,,,0.00,Acu-Link.com,2013-10-03 00:05:00,
2013-10-02 17:20:00,72.7,45.6,29.74,SE,135,0.0,-999.0,38,-99.99,,,0.00,Acu-Link.com,2013-10-03 00:20:00,
2013-10-02 17:35:00,72.0,46.3,29.75,West,270,2.7,-999.0,40,-99.99,,,0.00,Acu-Link.com,2013-10-03 00:35:00,
2013-10-02 17:50:00,71.1,46.2,29.75,SW,225,0.0,-999.0,41,-99.99,,,0.00,Acu-Link.com,2013-10-03 00:50:00,
2013-10-02 18:06:00,70.0,46.5,29.75,West,270,0.0,-999.0,43,-99.99,,,0.00,Acu-Link.com,2013-10-03 01:06:00,
2013-10-02 18:21:00,68.7,45.9,29.75,SW,225,1.1,-999.0,44,-99.99,,,0.00,Acu-Link.com,2013-10-03 01:21:00,
2013-10-02 18:36:00,67.5,47.7,29.75,ESE,112,0.0,-999.0,49,-99.99,,,0.00,Acu-Link.com,2013-10-03 01:36:00,
2013-10-02 18:52:00,65.5,46.9,29.75,ESE,112,0.0,-999.0,51,-99.99,,,0.00,Acu-Link.com,2013-10-03 01:52:00,
2013-10-02 19:07:00,64.4,47.4,29.75,ENE,67,0.0,-999.0,54,-99.99,,,0.00,Acu-Link.com,2013-10-03 02:07:00,
2013-10-02 19:22:00,62.6,48.1,29.75,ESE,112,0.0,-999.0,59,-99.99,,,0.00,Acu-Link.com,2013-10-03 02:22:00,
2013-10-02 19:37:00,61.9,47.9,29.75,ESE,112,0.0,-999.0,60,-99.99,,,0.00,Acu-Link.com,2013-10-03 02:37:00,
2013-10-02 19:53:00,60.4,48.2,29.76,SE,135,0.0,-999.0,64,-99.99,,,0.00,Acu-Link.com,2013-10-03 02:53:00,
2013-10-02 20:08:00,59.7,47.9,29.77,East,90,0.0,-999.0,65,-99.99,,,0.00,Acu-Link.com,2013-10-03 03:08:00,
2013-10-02 20:23:00,59.0,47.7,29.77,ESE,112,0.0,-999.0,66,-99.99,,,0.00,Acu-Link.com,2013-10-03 03:23:00,
2013-10-02 20:38:00,57.9,47.8,29.78,NNW,337,0.0,-999.0,69,-99.99,,,0.00,Acu-Link.com,2013-10-03 03:38:00,
2013-10-02 20:53:00,57.2,47.9,29.78,SSE,157,0.0,-999.0,71,-99.99,,,0.00,Acu-Link.com,2013-10-03 03:53:00,
2013-10-02 21:09:00,56.7,48.1,29.79,SE,135,0.0,-999.0,73,-99.99,,,0.00,Acu-Link.com,2013-10-03 04:09:00,
2013-10-02 21:24:00,56.1,47.6,29.80,SSW,202,0.0,-999.0,73,-99.99,,,0.00,Acu-Link.com,2013-10-03 04:24:00,
2013-10-02 21:39:00,55.2,47.8,29.79,NNW,337,0.0,-999.0,76,-99.99,,,0.00,Acu-Link.com,2013-10-03 04:39:00,
2013-10-02 21:55:00,54.7,47.6,29.79,East,90,0.0,-999.0,77,-99.99,,,0.00,Acu-Link.com,2013-10-03 04:55:00,
2013-10-02 22:10:00,54.1,47.1,29.80,ENE,67,0.0,-999.0,77,-99.99,,,0.00,Acu-Link.com,2013-10-03 05:10:00,
2013-10-02 22:25:00,54.1,47.1,29.80,NE,45,0.0,-999.0,77,-99.99,,,0.00,Acu-Link.com,2013-10-03 05:25:00,
2013-10-02 22:40:00,53.6,46.6,29.80,SSE,157,0.0,-999.0,77,-99.99,,,0.00,Acu-Link.com,2013-10-03 05:40:00,
2013-10-02 22:57:00,53.6,46.2,29.81,SE,135,0.0,-999.0,76,-99.99,,,0.00,Acu-Link.com,2013-10-03 05:57:00,
2013-10-02 23:12:00,53.6,45.9,29.82,SSW,202,0.0,-999.0,75,-99.99,,,0.00,Acu-Link.com,2013-10-03 06:12:00,
2013-10-02 23:29:00,53.6,45.9,29.81,SW,225,1.1,-999.0,75,-99.99,,,0.00,Acu-Link.com,2013-10-03 06:29:00,
2013-10-02 23:44:00,53.6,44.8,29.80,ESE,112,0.0,-999.0,72,-99.99,,,0.00,Acu-Link.com,2013-10-03 06:44:00,